Location: Trout Lake
(45.9980°N, 121.5270°W)
Time: 19:00:37
(UTC-08:00)

Cosmos 1603 - Pass Details

Date: 06 December 2023
Orbit: 832 x 857 km, 71.0° (Epoch: 22 February)

Event Time Altitude Azimuth Distance (km) Brightness Sun altitude
Rises 16:45:32 0° 338° (NNW) 3,423 6.8 -4.5°
Reaches altitude 10° 16:48:11 10° 346° (NNW) 2,480 6.0 -4.9°
Maximum altitude 16:53:27 37° 54° (NE) 1,280 4.2 -5.7°
Drops below altitude 10° 16:58:39 10° 121° (ESE) 2,450 5.8 -6.5°
Sets 17:01:16 0° 130° (SE) 3,377 6.6 -6.9°
